This is the latest recevied weather packets stored in our database for station/object KO5MO-11. If no packets are shown the sender has not sent any weather packets the latest 10 day(s).
| Time | Temp. | Humidity | Pressure | Rain* | Wind** | Luminosity | Snow |
|---|---|---|---|---|---|---|---|
| 1777080701 | 30.56° C | 26% | 1004.1 hPa | - | - | - | - |
| 1777080401 | 31.11° C | 25% | 1004.1 hPa | - | - | - | - |
| 1777080101 | 31.11° C | 26% | 1004 hPa | - | - | - | - |
| 1777079801 | 31.11° C | 26% | 1004.1 hPa | - | - | - | - |
| 1777079501 | 31.11° C | 27% | 1004.2 hPa | - | - | - | - |
| 1777079201 | 30.56° C | 28% | 1004.2 hPa | - | - | - | - |
| 1777078901 | 30° C | 26% | 1004.1 hPa | - | - | - | - |
| 1777078601 | 30.56° C | 25% | 1004.2 hPa | - | - | - | - |
| 1777078301 | 30.56° C | 25% | 1004.2 hPa | - | - | - | - |
| 1777078001 | 31.11° C | 25% | 1004.2 hPa | - | - | - | - |
| 1777077701 | 31.67° C | 25% | 1004.2 hPa | - | - | - | - |
| 1777077401 | 31.11° C | 26% | 1004.2 hPa | - | - | - | - |
| 1777077101 | 31.67° C | 26% | 1004.3 hPa | - | - | - | - |
| 1777076801 | 31.11° C | 28% | 1004.4 hPa | - | - | - | - |
| 1777076501 | 30.56° C | 27% | 1004.5 hPa | - | - | - | - |
| 1777076201 | 31.11° C | 25% | 1004.6 hPa | - | - | - | - |
| 1777075901 | 31.11° C | 25% | 1004.5 hPa | - | - | - | - |
| 1777075601 | 31.11° C | 25% | 1004.6 hPa | - | - | - | - |
| 1777075301 | 31.11° C | 25% | 1004.6 hPa | - | - | - | - |
| 1777075001 | 31.11° C | 25% | 1004.6 hPa | - | - | - | - |
| 1777074701 | 31.11° C | 25% | 1004.6 hPa | - | - | - | - |
| 1777074401 | 31.11° C | 26% | 1004.6 hPa | - | - | - | - |
| 1777074101 | 31.11° C | 27% | 1004.7 hPa | - | - | - | - |
| 1777073801 | 31.11° C | 29% | 1004.7 hPa | - | - | - | - |
| 1777073501 | 31.11° C | 26% | 1004.7 hPa | - | - | - | - |
* Rain since midnight (hover to see other rain measurements)
** Current wind speed in m/s (hover to see current wind gust speed)